TimePDT,TemperatureF,Dew PointF,Humidity,Sea Level PressureIn,VisibilityMPH,Wind Direction,Wind SpeedMPH,Gust SpeedMPH,PrecipitationIn,Events,Conditions,WindDirDegrees,DateUTC
12:53 AM,46.9,44.1,90,30.19,10.0,ESE,8.1,-,N/A,,Partly Cloudy,120,2013-10-02 07:53:00
1:53 AM,46.0,44.1,93,30.19,10.0,SE,6.9,-,N/A,,Scattered Clouds,140,2013-10-02 08:53:00
2:53 AM,46.9,44.1,90,30.18,10.0,ESE,5.8,-,N/A,,Mostly Cloudy,120,2013-10-02 09:53:00
3:50 AM,46.4,44.6,93,30.17,10.0,ESE,6.9,-,N/A,,Overcast,120,2013-10-02 10:50:00
3:53 AM,46.9,44.1,90,30.17,10.0,ESE,6.9,-,N/A,,Overcast,120,2013-10-02 10:53:00
4:53 AM,46.0,44.1,93,30.14,10.0,SSE,5.8,-,N/A,,Overcast,150,2013-10-02 11:53:00
5:53 AM,45.0,43.0,93,30.14,10.0,Calm,Calm,-,N/A,,Mostly Cloudy,0,2013-10-02 12:53:00
6:53 AM,45.0,43.0,93,30.14,10.0,Calm,Calm,-,N/A,,Mostly Cloudy,0,2013-10-02 13:53:00
7:53 AM,46.9,44.1,90,30.13,10.0,ESE,5.8,-,N/A,,Mostly Cloudy,110,2013-10-02 14:53:00
8:53 AM,46.9,44.1,90,30.13,10.0,Calm,Calm,-,N/A,,Mostly Cloudy,0,2013-10-02 15:53:00
9:53 AM,50.0,44.1,80,30.13,10.0,SSE,4.6,-,N/A,,Mostly Cloudy,150,2013-10-02 16:53:00
10:53 AM,51.1,45.0,80,30.13,10.0,South,5.8,-,N/A,,Overcast,170,2013-10-02 17:53:00
11:39 AM,51.8,44.6,76,30.12,10.0,South,5.8,-,N/A,,Overcast,190,2013-10-02 18:39:00
11:53 AM,52.0,45.0,77,30.12,10.0,South,8.1,-,N/A,,Overcast,180,2013-10-02 18:53:00
12:53 PM,51.1,46.9,86,30.12,6.0,South,3.5,-,0.01,Rain,Light Rain,170,2013-10-02 19:53:00
1:17 PM,51.8,46.4,82,30.12,9.0,South,5.8,-,0.02,Rain,Light Rain,180,2013-10-02 20:17:00
1:53 PM,52.0,46.9,83,30.11,10.0,SSW,6.9,-,0.02,,Overcast,210,2013-10-02 20:53:00
2:28 PM,51.8,46.4,82,30.10,9.0,SW,5.8,-,0.00,Rain,Light Rain,230,2013-10-02 21:28:00
2:53 PM,53.1,46.0,77,30.10,10.0,SSW,5.8,-,0.00,,Overcast,210,2013-10-02 21:53:00
3:53 PM,54.0,46.0,75,30.09,10.0,South,5.8,-,N/A,,Mostly Cloudy,190,2013-10-02 22:53:00
4:53 PM,54.0,46.0,75,30.10,10.0,SSW,5.8,-,N/A,,Overcast,200,2013-10-02 23:53:00
5:53 PM,53.1,46.0,77,30.10,10.0,South,9.2,-,0.00,,Overcast,180,2013-10-03 00:53:00
6:53 PM,48.0,45.0,89,30.12,10.0,SSE,6.9,-,0.20,Rain,Light Rain,150,2013-10-03 01:53:00
7:53 PM,48.0,45.0,89,30.13,10.0,Calm,Calm,-,0.04,,Overcast,0,2013-10-03 02:53:00
8:53 PM,48.0,45.0,89,30.15,10.0,SSE,4.6,-,N/A,,Overcast,150,2013-10-03 03:53:00
9:53 PM,48.0,46.0,93,30.17,10.0,Calm,Calm,-,0.00,,Overcast,0,2013-10-03 04:53:00
10:53 PM,46.9,45.0,93,30.19,10.0,ESE,3.5,-,N/A,,Mostly Cloudy,110,2013-10-03 05:53:00
11:41 PM,46.4,44.6,93,30.20,10.0,SE,3.5,-,N/A,,Overcast,140,2013-10-03 06:41:00
11:53 PM,46.9,45.0,93,30.20,10.0,SE,3.5,-,N/A,,Overcast,140,2013-10-03 06:53:00